Persoonlijke zone
Imprimable
Wissant, 07-08/09/2019, FRA - Trail de la Côte d'Opale
Rapportenlijst > 24km - Resultaat
Zoek: Bladzijde: [1]
167 Inputs
 
Klachten worden niet meer geaccepteerd. Resultaten zijn definitief.
PlaatsNrLicenceNaamLeef.IOCClubTijdTkmGem.ScrGemeente
1.7017BOURNONS Éric52BEL1:50:044:36 13.0820
2.7081WIEME Philippe52BELCAP BEAURAING1:50:164:36 13.0621
3.6871DAEL Michel54FRA1:56:464:52 12.3354
4.6470MARCHAND Olivier54BELBOUFFIOLS1:57:124:53 12.2957
5.7037VANDEWEGHE Jean-Luc53FRAPICOLORUNS1:58:074:56 12.1963
6.6923T307384SARTORIUS Amaury51FRAPASS RUNNING2:02:095:06 11.7997
7.6991TARRIN Gilles50FRA2:02:115:06 11.7998
8.6836PIERAERT Guy54BELTRIATH2:03:275:09 11.66108
9.7232HUYS Urbain59BELACKO2:03:315:09 11.66112
10.7167BORSUS Charly56FRAAPÉRO DU MARDI2:04:095:11 11.60119
11.6656MOULY Stephane50FRACAPUCHE TEAM2:04:105:11 11.60120
12.6674SCHMETZ Bernard55FRARUNNERS BERNEAU2:05:055:13 11.51131
13.6865BERTHAUT Christophe50FRA2:05:095:13 11.51132
14.6601LEMAIRE Sylvain59FRA2:06:495:18 11.36152
15.7441DESWARTE Laurent50FRA2:07:055:18 11.33155
16.6355DEPRINCE Vincent51BELVERTIGO2:08:495:23 11.18182
17.7330VIDAUD Frédéric53FRA2:09:165:24 11.14191
18.7363MAHIEUX Patrick59FRA2:10:535:28 11.00212
19.7249RZASA Patrick57FRA2:11:595:30 10.91231
20.7002BOURDEAU Stephane51FRA2:13:275:34 10.79252
21.6698DELWART Roland58BELVERTIGO2:13:425:35 10.77258
22.7426THOMAS Pierre-Olivier50FRAOSLO2:13:555:35 10.75261
23.6324DA COSTA NETO Antonio54FRA2:14:285:37 10.71264
24.7189VAN CEUNEBROECK Michel52BELLES CEUSSES DES COLLINES2:14:555:38 10.67272
25.6384LECLERCQ Michel51FRAJCPMF FLV2:15:015:38 10.67273
26.6421FERY Etienne51BELRAPTOR TEAM2:15:375:40 10.62285
27.7276PASCAL DECLERCQ Pascal56BEL2:15:395:40 10.62287
28.6113LEFEVRE Philippe52FRA2:16:155:41 10.57297
29.6449COUTELARD Laurent51FRAPHILIPPIDES TEMPLEUVE2:17:155:44 10.49318
30.6072DEPERNE Christof51FRARUNNERS EN NORD2:17:455:45 10.45321
31.6901LOSSERAND Jean-Jacques56FRA2:18:295:47 10.40337
32.6057LUGAT Charles53FRAAC AMIENOISE2:18:335:47 10.39342
33.6218OBERT Thierry54FRA2:19:015:48 10.36363
34.7005T307122SAUTEREAU Franck51FRAPASS RUNNING2:19:225:49 10.33374
35.7168AZANNE Comlan52FRA2:19:425:50 10.31381
36.6386DUVEY Estienne52FRA2:20:295:52 10.25393
37.6926CAALS Pierre-Yves51FRA2:21:235:54 10.19410
38.7521DUPUIS David51FRAOSLO2:21:335:54 10.17413
39.6887BESEGHER Pascal53FRACOURIR À MERVILLE2:22:055:56 10.14424
40.6030HORAK Stephane50FRAALUMINIUM DUNKERQUE2:22:395:57 10.10432
41.6682RENARD Jean Philippe52FRA2:22:535:58 10.08434
42.60862533505DULOT Eric57FRAACO2:23:125:58 10.06441
43.7453BENGTSSON Mats53SUÉOK AVENTURE / WINETEAM2:24:156:01 9.98463
44.7219LE COZ Jean Noel51FRA2:24:186:01 9.98465
45.7211HERVE Luc53BEL2:24:246:01 9.97470
46.6892HANOT Vincent53FRA2:24:536:03 9.94482
47.7296DEBOEVER Francis54BEL2:25:436:05 9.88502
48.6003DUMOULIN Mathieu53FRA2:25:536:05 9.87506
49.6940VANDERSTAPPEN Gaëtan58BELACKO2:26:266:07 9.83513
50.7051SOGALOW Jean-Marc52FRA2:26:356:07 9.82520
51.7508ETIENNE Christophe55FRAOSLO2:26:366:07 9.82521
52.7067MELOTTE Marc53BELJCPMF AMÉE2:27:436:10 9.75537
53.7543SAUTOT Olivier57FRAASUD JOGGING2:28:166:11 9.71551
54.7028MACHERAC Laurent55FRACSFM2:28:366:12 9.69557
55.6790OGNIBENE Serge50BEL2:28:476:12 9.68561
56.6750BODDAERT Pierre56FRA2:29:146:14 9.65569
57.7288CATTEAU Laurent51FRA2:29:386:15 9.62576
58.7373DOLLET Frederic52FRAOK AVENTURE2:29:406:15 9.62581
59.73811526159FOURNEAU Thierry55FRARONCHIN ATHLETIC CLUB2:29:586:15 9.60587
60.66231812566TIBERGHIEN Fabrice53FRAPLANETE RUNNING AND WALKI2:30:276:17 9.57598
61.6614BERTRAND Bruno53BEL2:30:526:18 9.55605
62.6992VOREAUX Christophe55FRARUN'IN MORBECQUE2:30:576:18 9.54607
63.6364DECOTTEGNIE Eric53FRAMARBRERIE DECOTTEGNIE2:31:126:18 9.52613
64.7397MOULINIER Franck55FRAOK AVENTURE2:32:236:21 9.45635
65.6533MICHEL Pierre50BELRUNNINGCLUBMETTET2:32:266:22 9.45637
66.6262STILITE Bertrand50BEL2:32:516:23 9.42647
67.6967COPENS Benoit55BELPOTOS ROSES2:33:076:23 9.40652
68.6702MARTINAGE Lionel53BELPOTOS ROS2:33:086:23 9.40654
69.6475HYNE Dominique50BELLES APEROS DU MARDI2:33:396:25 9.37662
70.6911ROUSSEAU Jean-Marc55BELAPÉRO DU MARDI2:33:396:25 9.37663
71.6605NOKIN Daniel57BELHUY JE COURS PARTOUT2:33:416:25 9.37665
72.6388MAURISSET Alexandre50FRAJCPMF GENAPPE2:34:136:26 9.34675
73.6048STROZYK Laurent51FRA2:34:136:26 9.34676
74.6900LEMAINE Dominique57BELJCPMF GENAPPE2:34:146:26 9.34677
75.73871073420CHEMIN Bernard56FRAUSVA2:34:266:27 9.33682
76.6613SCHARPÉ Charles53FRAJE COURS A INCOURT2:35:066:28 9.28690
77.7463DESTREZ Christophe53FRA2:35:166:29 9.28697
78.7267THOMAS Fabrice51FRA2:35:236:29 9.27698
79.6045COUCKE Olivier51FRA2:35:406:30 9.25701
80.6452LEVRAT Antoine55FRA2:35:566:30 9.24706
81.7014HISETTE Damien54BEL2:36:076:31 9.22712
82.7004LATREILLE Philippe51FRA2:36:086:31 9.22714
83.7158DECLERCQ Pierre51BEL2:36:156:31 9.22715
84.7565BARBIER Jérôme53FRA2:37:296:34 9.14738
85.6897VAN ROY Etienne54BELCABW ACL2:37:316:34 9.14739
86.6981REICHLING Jean Marc58BELJTRR2:37:346:34 9.14740
87.7074GOFFIN Fabrice52BELCAP BEAURAING2:37:446:35 9.13746
88.7518DESART Yves52BELGAG/GTC2:38:026:36 9.11752
89.66921863249HUK Laurent51FRAVAL DE SOMME2:38:206:36 9.09762
90.7561BERTHE Jean Pierre54FRA2:39:066:38 9.05777
91.7108TENRET Hugues56BELJCHSH2:39:116:38 9.05780
92.6764BAIVERLIN Luc53BEL2:39:186:39 9.04783
93.6769MADEC Jean Philippe56FRAPHILIPPIDES CLUB TEMPLEUV2:39:186:39 9.04785
94.6074GOREZ Thierry54FRA2:39:296:39 9.03794
95.7227BELLAREDJ Philippe52FRASPORT NATURE DOMARTOIS2:39:356:39 9.02796
96.7058LEMAIRE Benoit55BEL2:39:396:40 9.02798
97.7141JAUQUET Daniel54FRAJCHSH2:40:016:41 9.00800
98.6349LAPOTRE Sylvain50FRA2:40:476:42 8.96812
99.7402GONZALEZ Pierre52FRAOK AVENTURE2:40:516:43 8.95813
100.7374CLÉMENT Jérôme56FRAOK AVENTURE2:40:516:43 8.95814
101.6116VAAST Yvan56FRA2:41:166:44 8.93821
102.7289PIRARD Jean-Luc52BELLES GOTTIGNIARDS2:41:226:44 8.92822
103.6059GROBELNY Gerry57FRA2:41:586:45 8.89834
104.6524SEVRIN Etienne59FRA2:42:056:46 8.89838
105.6049DUFLOS Patrice50FRA2:42:246:46 8.87845
106.7407ADONEL Hervé55FRA2:42:246:46 8.87846
107.7294MOLMY Lionel57FRA2:42:286:47 8.86849
108.6928MERTENS Rudi58BEL2:42:326:47 8.86852
109.6734ANTUNES Philippe54FRACLUB JEAN MOULIN2:43:456:50 8.79861
110.7159DESCAMPS Pierre52FRA2:44:006:50 8.78868
111.7538FRIEDRICH Jean-Luc53FRASER ATHLÉ2:44:286:52 8.76878
112.6141LEFEVRE Gérard53BEL2:44:336:52 8.75883
113.6638RAZEMON Stéphane57FRA2:45:076:53 8.72895
114.7549LORENT Vincent55FRAJT BESONRIEUX2:46:216:56 8.66921
115.7548MICHAUX Didier52BELJT BESONRIEUX2:46:216:56 8.66922
116.7075ROMEUR Laurent58FRAGARGUANTUA2:47:296:59 8.60945
117.6313STIENSMA Eric59BELWPRC2:48:227:01 8.55955
118.6531MIEROO Philippe50FRAWPRC2:48:227:01 8.55956
119.6584MOUGIN Philippe54FRA2:50:057:06 8.47971
120.7019VROOME Henri54BELTEAM VROOME2:50:277:07 8.45975
121.7520THIRION Jean-Francois55FRAAC NEUPRÉ2:51:357:09 8.391001
122.6330BAYART Thierry56FRAJOG ASAD2:52:197:11 8.361012
123.7297DEBOEVER Bernard50BEL2:52:497:13 8.331015
124.6485RENARD Thierry50FRADELE FAMILY TEAM2:53:017:13 8.321023
125.6242SIMON Xavier58BELSANS2:53:047:13 8.321025
126.6097MALBEC Olivier51FRA2:53:147:14 8.311031
127.6875LÉONARD Marc50BEL2:53:237:14 8.311037
128.6394DELCAMBRE Christian53FRALA FOULÉE PONT À MARCQUOI2:55:077:18 8.221049
129.6779RYCKEBOSCH Ludwig56BELB BÊTES DE COURSE2:55:327:19 8.201058
130.7459DELMARRE Pierre58FRAFARMERS2:55:377:20 8.201065
131.6581MALFOY Stephane50FRA2:57:347:24 8.111088
132.6297DEFOSSE Frédéric51FRA2:58:187:26 8.081105
133.7431BELE Jean-Denis51FRAOSLO2:58:467:27 8.061111
134.6519DAILLY Laurent50FRA2:59:297:29 8.021128
135.7237JOVENEAU Bruno55BELACCROS DES 5 CLOCHERS3:02:037:36 7.911149
136.7240HERLIN Fabrice52BELLES CEUSSES DES COLLINES3:02:337:37 7.891157
137.7525FRERE Eric57FRA3:05:007:43 7.781188
138.6055HENNEQUIN Dominique56FRAAS CE ADP3:06:197:46 7.731200
139.6557ROLLAND Philippe51BEL3:06:387:47 7.721204
140.7562POCHET Denis58FRA3:06:427:47 7.711208
141.6841D'IGNAZIO Olivier54BELJC BAUDOUR3:07:087:48 7.701210
142.6014GEVENOIS Frank57FRALES AMIS JOGGEURS3:07:097:48 7.691213
143.7472WATTIEZ Manoel50BELJOGGING CLUB DE BAUDOUR3:07:097:48 7.691214
144.6490BAUWENS Marcel59BELJOGGING CLUB BAUDOUR3:07:107:48 7.691216
145.7280MARCHAL Antoine50FRA3:08:287:52 7.641225
146.6434DAME Jean-Marie59BELTORTUES MESLINOISES3:09:167:54 7.611234
147.6667VANBENEDEN Frédéric55FRA3:09:497:55 7.591245
148.6504HENRARD Vincent52FRA3:11:187:59 7.531258
149.7105DOUCHET Jean-Pierre54FRA3:11:237:59 7.521260
150.7082GARCIA Hervé59FRAGARGANTUA3:11:257:59 7.521261
151.6778VANDEVILLE Paul53FRA3:11:488:00 7.511267
152.6916TOUWAIDE Jean Luc56BELENJAMBEE3:11:578:00 7.501269
153.6844VAN NIEUWENHUYZE Eric51BELTEAM TRAIL MONTS ET COLLI3:13:588:05 7.421277
154.6109DECOOL François52FRA3:14:278:07 7.411287
155.6708HENNIART Frédéric52FRA3:17:208:14 7.301313
156.6520DARDENNE Philippe57BEL3:18:328:17 7.251322
157.7184LE PAPE Guénolé55FRA3:18:498:18 7.241325
158.7554DUPONT Marc51FRAH2R (HERLIES RENDO RUN)3:18:498:18 7.241326
159.7393HOCQUET Xavier56FRAOKAVENTURE3:18:588:18 7.241328
160.7315COLABELLA Marc50FRA3:20:578:23 7.171332
161.6801CLAEYS Philippe58BEL3:25:508:35 7.001346
162.6576MORESCHI Pierre-Louis51BELJOGGING CLUB BAUDOUR3:32:368:52 6.771355
163.6686DURIN Eddy52BELTRIATH ATHOIS D'COURIR3:42:489:17 6.461363
DSQ6474FOULON Sylvain51FRA
DSQ6833SPAGNUOLO Angelo58BELJC BAUDOUR1:56:29
DNF6566BROUART Jean-Marc58FRASMRC CLUB
DNF7437TALBOT Michel52FRA
DNF: abandon; DSQ: disqualifié; Vitesse en km/h
Bladzijde: [1]